This is the latest recevied weather packets stored in our database for station/object KC9MWQ-13. If no packets are shown the sender has not sent any weather packets the latest 10 day(s).
| Time | Temp. | Humidity | Pressure | Rain* | Wind** | Luminosity | Snow |
|---|---|---|---|---|---|---|---|
| 1777669307 | 10° C | 70% | 1016.9 hPa | 0 mm | - | 193 W/m² | - |
| 1777669003 | 10° C | 69% | 1016.8 hPa | 0 mm | - | 120 W/m² | - |
| 1777668701 | 10° C | 66% | 1016.8 hPa | 0 mm | - | 102 W/m² | - |
| 1777668397 | 10° C | 68% | 1016.7 hPa | 0 mm | - | 131 W/m² | - |
| 1777668093 | 10.56° C | 68% | 1016.8 hPa | 0 mm | - | 146 W/m² | - |
| 1777667790 | 10.56° C | 67% | 1016.8 hPa | 0 mm | - | 147 W/m² | - |
| 1777667487 | 10.56° C | 66% | 1016.8 hPa | 0 mm | - | 209 W/m² | - |
| 1777667185 | 10.56° C | 64% | 1016.8 hPa | 0 mm | - | 210 W/m² | - |
| 1777666881 | 10.56° C | 66% | 1016.8 hPa | 0 mm | - | 227 W/m² | - |
| 1777666579 | 10.56° C | 67% | 1017 hPa | 0 mm | - | 240 W/m² | - |
| 1777666275 | 10.56° C | 69% | 1016.8 hPa | 0 mm | - | 223 W/m² | - |
| 1777665972 | 10.56° C | 72% | 1016.9 hPa | 0 mm | - | 189 W/m² | - |
| 1777665670 | 10° C | 69% | 1017 hPa | 0 mm | - | 181 W/m² | - |
| 1777665367 | 10° C | 68% | 1016.8 hPa | 0 mm | - | 231 W/m² | - |
| 1777665062 | 10° C | 69% | 1016.8 hPa | 0 mm | - | 237 W/m² | - |
| 1777664758 | 10° C | 70% | 1016.9 hPa | 0 mm | - | 186 W/m² | - |
| 1777664454 | 10° C | 71% | 1016.9 hPa | 0 mm | - | 168 W/m² | - |
| 1777664151 | 10° C | 73% | 1017.1 hPa | 0 mm | - | 159 W/m² | - |
| 1777663850 | 10° C | 71% | 1016.7 hPa | 0 mm | - | 124 W/m² | - |
| 1777663546 | 10° C | 72% | 1016.7 hPa | 0 mm | - | 128 W/m² | - |
| 1777663244 | 10° C | 72% | 1016.7 hPa | 0 mm | - | 140 W/m² | - |
| 1777662941 | 10° C | 71% | 1016.7 hPa | 0 mm | - | 125 W/m² | - |
| 1777662638 | 10° C | 69% | 1016.8 hPa | 0 mm | - | 113 W/m² | - |
| 1777662334 | 10.56° C | 69% | 1016.5 hPa | 0 mm | - | 131 W/m² | - |
| 1777662029 | 10.56° C | 70% | 1016.4 hPa | 0 mm | - | 160 W/m² | - |
* Rain latest hour (hover to see other rain measurements)
** Current wind speed in m/s (hover to see current wind gust speed)